This demonstration page uses our WeatherBlox Daily Observations layout. Learn more.

Left ArrowRight Arrow

44.8408, -93.29828

Hourly Observations for November 1, 2016

Temp ( °F °C ) Dew Point ( °F °C ) Humidity (%) Winds ( mph kmh ) Pressure ( in mb ) Visibility ( mi km ) Precip ( " mm )
12:53 am 00:53 Cloudy with Mist and Fog 57 13.9 53 11.7 87 87 SW 9 15 29.67 1005 6 10 0.00 0.00
1:05 am 01:05 Cloudy with Mist and Fog 56 13.3 53 11.7 90 90 SW 7 11 29.68 1005 6 10 0.00 0.00
1:17 am 01:17 Cloudy with Mist and Fog 56 13.3 53 11.7 90 90 WSW 6 9 29.68 1005 6 10 0.00 0.00
1:35 am 01:35 Mostly Cloudy with Mist and Fog 55 12.8 53 11.7 93 93 WSW 5 7 29.68 1005 5 8 0.00 0.00
1:53 am 01:53 Mostly Cloudy with Mist and Fog 55 12.8 53 11.7 93 93 SW 5 7 29.68 1005 5 8 0.00 0.00
2:53 am 02:53 Cloudy with Mist and Fog 55 12.8 52 11.1 90 90 WSW 6 9 29.70 1006 5 8 0.00 0.00
3:53 am 03:53 Cloudy with Mist and Fog 55 12.8 52 11.1 90 90 SSW 3 6 29.72 1006 5 8 0.00 0.00
4:53 am 04:53 Clear with Mist and Fog 52 11.1 49 9.4 89 89 W 7 11 29.73 1007 5 8 0.00 0.00
5:53 am 05:53 Clear 52 11.1 48 8.9 86 86 SW 7 11 29.75 1007 7 11 0.00 0.00
6:53 am 06:53 Clear 50 10 46 7.8 86 86 WSW 6 9 29.78 1008 10 16 0.00 0.00
7:53 am 07:53 Mostly Sunny 49 9.4 44 6.7 83 83 WSW 3 6 29.80 1009 10 16 0.00 0.00
8:53 am 08:53 Mostly Sunny 49 9.4 45 7.2 86 86 Calm 29.85 1011 10 16 0.00 0.00
9:53 am 09:53 Mostly Sunny 53 11.7 45 7.2 74 74 WSW 5 7 29.87 1012 10 16 0.00 0.00
10:53 am 10:53 Mostly Sunny 59 15 44 6.7 58 58 WNW 6 9 29.87 1012 10 16 0.00 0.00
11:53 am 11:53 Partly Cloudy 61 16.1 43 6.1 52 52 W 8 13 29.88 1012 10 16 0.00 0.00
12:53 pm 12:53 Partly Cloudy 62 16.7 43 6.1 50 50 W 6 9 29.88 1012 10 16 0.00 0.00
1:53 pm 13:53 Partly Cloudy 62 16.7 43 6.1 50 50 WNW 8 13 29.89 1012 10 16 0.00 0.00
2:53 pm 14:53 Partly Cloudy 63 17.2 43 6.1 48 48 WNW 10 17 29.91 1013 10 16 0.00 0.00
3:53 pm 15:53 Mostly Cloudy 61 16.1 43 6.1 52 52 WNW 9 15 29.93 1014 10 16 0.00 0.00
4:53 pm 16:53 Mostly Cloudy 60 15.6 44 6.7 56 56 NW 8 13 29.95 1014 10 16 0.00 0.00
5:53 pm 17:53 Mostly Cloudy 56 13.3 43 6.1 62 62 WNW 5 7 29.97 1015 10 16 0.00 0.00
6:53 pm 18:53 Cloudy 55 13 52 11 88 88 S 12 19 29.62 1003 7 11 0.00 0.00
7:53 pm 19:53 Partly Cloudy 52 11.1 43 6.1 72 72 Calm 30.03 1017 10 16 0.00 0.00
8:53 pm 20:53 Cloudy 50 10 43 6.1 77 77 NW 5 7 30.04 1017 10 16 0.00 0.00
9:53 pm 21:53 Cloudy 48 8.9 43 6.1 83 83 WNW 3 6 30.06 1018 10 16 0.00 0.00
10:53 pm 22:53 Cloudy 47 8.3 42 5.6 83 83 Calm 30.08 1019 10 16 0.00 0.00
11:53 pm 23:53 Cloudy 48 8.9 42 5.6 80 80 SW 3 6 30.10 1019 10 16 0.00 0.00

Powered by AerisWeather